Location: Shannon
(40.5500°S, 175.4167°E)
Time: 21:37:23
(UTC+00:00)

Cosmos 2219 - Pass Details

Date: 17 November 2025
Orbit: 832 x 859 km, 71.1° (Epoch: 06 December)

Event Time Altitude Azimuth Distance (km) Brightness Sun altitude
Exits shadow 14:00:52 44° 24° (NNE) 1,182 3.7 -24.4°
Maximum altitude 14:02:19 56° 72° (ENE) 1,025 3.6 -24.2°
Drops below altitude 10° 14:07:57 10° 148° (SSE) 2,513 6.8 -23.7°
Sets 14:10:27 0° 152° (SSE) 3,453 7.8 -23.4°
